Weather History for Ardmore, OK

Change the Weather History Date:

Wednesday, February 5, 2014

  Actual Average Record
Temperature  
Mean Temperature 24 °F -  
Max Temperature 32 °F 52 °F 69 °F (1999)
Min Temperature 15 °F 34 °F 1 °F (2011)
Degree Days  
Heating Degree Days 42    
Moisture  
Dew Point 18 °F    
Average Humidity 79    
Maximum Humidity 86    
Minimum Humidity 69    
Precipitation  
Precipitation 0.00 in - - ()
Sea Level Pressure  
Sea Level Pressure 30.42 in    
Wind  
Wind Speed 17 mph (North)    
Max Wind Speed 23 mph    
Max Gust Speed 31 mph    
Visibility 10 miles    
Events      
Averages and records for this station are not official NWS values.
T = Trace of Precipitation, MM = Missing Value Source: NWS Daily Summary

Daily Weather History Graph

Daily Weather History Graph

Search for Another Location

Airport:

Trip Planner

Search our weather history database for the weather conditions in past years. The results will help you decide how hot, cold, wet, or windy it might be!

Date:

Astronomy

Feb. 05, 2014 Rise Set
Actual Time 7:22 AM CST 6:02 PM CST
Civil Twilight 6:56 AM CST 6:28 PM CST
Nautical Twilight 6:26 AM CST 6:58 PM CST
Astronomical Twilight 5:57 AM CST 7:27 PM CST
Moon 10:56 AM CST (2/5) No Moon Set
Length of Visible Light 11h 31m
Length of Day
10h 39m
Waxing Crescent, 39% of the Moon is Illuminated
Feb 5
Waxing Crescent
Feb 6
First Quarter
Feb 14
Full
Feb 22
Last Quarter
Mar 1
New

Hourly Weather History & Observations

Time (CST) Temp. Windchill Dew Point Humidity Pressure Visibility Wind Dir Wind Speed Gust Speed Precip Events Conditions
12:15 AM 32.7 °F 21.8 °F 28.9 °F 86% 30.15 in 10.0 mi NNW 17.3 mph 25.3 mph N/A   Overcast
12:35 AM 32.0 °F 20.1 °F 26.6 °F 80% 30.17 in 10.0 mi NNW 19.6 mph 31.1 mph N/A   Mostly Cloudy
12:55 AM 32.0 °F 20.1 °F 26.8 °F 81% 30.18 in 10.0 mi NNW 19.6 mph 24.2 mph N/A   Mostly Cloudy
1:15 AM 31.1 °F 19.3 °F 26.2 °F 82% 30.20 in 10.0 mi NNW 18.4 mph 25.3 mph N/A   Mostly Cloudy
1:35 AM 30.7 °F 18.8 °F 26.4 °F 84% 30.21 in 10.0 mi NNW 18.4 mph 23.0 mph N/A   Mostly Cloudy
1:55 AM 30.2 °F 19.3 °F 25.7 °F 83% 30.23 in 10.0 mi North 15.0 mph 24.2 mph N/A   Overcast
2:15 AM 29.5 °F 16.2 °F 24.8 °F 83% 30.24 in 10.0 mi NNW 21.9 mph 27.6 mph N/A   Overcast
2:35 AM 28.8 °F 14.9 °F 23.5 °F 81% 30.26 in 10.0 mi North 23.0 mph 26.5 mph N/A   Overcast
2:55 AM 27.9 °F 14.4 °F 22.1 °F 79% 30.27 in 10.0 mi NNW 20.7 mph 29.9 mph N/A   Overcast
3:15 AM 27.3 °F 14.0 °F 22.1 °F 81% 30.29 in 10.0 mi NNW 19.6 mph 27.6 mph N/A   Overcast
3:35 AM 27.1 °F 14.1 °F 22.1 °F 81% 30.30 in 10.0 mi NNW 18.4 mph 24.2 mph N/A   Overcast
3:55 AM 26.6 °F 15.7 °F 21.6 °F 81% 30.32 in 10.0 mi NNW 12.7 mph 23.0 mph N/A   Overcast
4:15 AM 25.9 °F 12.9 °F 20.8 °F 81% 30.34 in 10.0 mi NNW 17.3 mph - N/A   Overcast
4:35 AM 25.7 °F 13.1 °F 20.3 °F 80% 30.35 in 10.0 mi North 16.1 mph 24.2 mph N/A   Overcast
4:55 AM 25.5 °F 14.9 °F 20.3 °F 81% 30.36 in 10.0 mi NNW 11.5 mph - N/A   Mostly Cloudy
5:15 AM 25.3 °F 11.8 °F 20.5 °F 82% 30.37 in 10.0 mi NNW 18.4 mph 24.2 mph N/A   Overcast
5:35 AM 24.4 °F 11.5 °F 18.7 °F 79% 30.39 in 10.0 mi NNW 16.1 mph 26.5 mph N/A   Mostly Cloudy
6:55 AM 21.2 °F 7.3 °F 15.8 °F 80% 30.44 in 10.0 mi NW 16.1 mph - N/A   Overcast
7:55 AM 17.6 °F 2.7 °F 14.0 °F 86% 30.47 in 10.0 mi NNW 16.1 mph 24.2 mph N/A   Overcast
8:30 AM 17.6 °F 2.7 °F 14.0 °F 86% 30.47 in 10.0 mi NNW 16.1 mph 26.5 mph N/A   Mostly Cloudy
8:55 AM 17.6 °F 2.2 °F 14.0 °F 86% 30.51 in 10.0 mi North 17.3 mph 25.3 mph N/A   Unknown
9:55 AM - - - N/A% 30.55 in 10.0 mi North 17.3 mph 25.3 mph N/A   Clear
10:55 AM 21.2 °F 8.3 °F 14.0 °F 74% 30.55 in 10.0 mi North 13.8 mph 20.7 mph N/A   Clear
11:55 AM 23.0 °F 9.6 °F 15.8 °F 74% 30.55 in 10.0 mi North 16.1 mph - N/A   Clear
12:55 PM 23.0 °F 9.6 °F 15.8 °F 74% 30.55 in 10.0 mi North 16.1 mph - N/A   Clear
1:55 PM 24.8 °F 12.4 °F 15.8 °F 69% 30.54 in 10.0 mi NW 15.0 mph - N/A   Clear
2:55 PM 24.8 °F 15.3 °F 17.6 °F 74% 30.53 in 10.0 mi NNW 9.2 mph 18.4 mph N/A   Clear
3:55 PM 24.8 °F 19.1 °F 15.8 °F 69% 30.52 in 10.0 mi North 4.6 mph 19.6 mph N/A   Clear
4:55 PM 24.8 °F 11.9 °F 15.8 °F 69% 30.53 in 10.0 mi North 16.1 mph 21.9 mph N/A   Clear
5:55 PM 21.2 °F 7.8 °F 14.0 °F 74% 30.53 in 10.0 mi North 15.0 mph 18.4 mph N/A   Clear
6:55 PM 19.4 °F 7.9 °F 14.0 °F 80% 30.54 in 10.0 mi North 10.4 mph 17.3 mph N/A   Clear
7:55 PM 17.6 °F 5.0 °F 12.2 °F 79% 30.57 in 10.0 mi North 11.5 mph 17.3 mph N/A   Clear
8:55 PM 17.6 °F 5.0 °F 10.4 °F 73% 30.58 in 10.0 mi North 11.5 mph - N/A   Clear
9:55 PM 15.8 °F 3.4 °F 10.4 °F 79% 30.57 in 10.0 mi North 10.4 mph 17.3 mph N/A   Clear
10:35 PM 15.6 °F 1.8 °F 9.3 °F 76% 30.58 in 10.0 mi NNE 12.7 mph - N/A   Clear
10:55 PM 15.8 °F 4.2 °F 9.7 °F 77% 30.57 in 10.0 mi NNE 9.2 mph - N/A   Clear
11:15 PM 16.0 °F 1.7 °F 9.3 °F 75% 30.57 in 10.0 mi North 13.8 mph 23.0 mph N/A   Scattered Clouds
11:35 PM 15.8 °F 2.7 °F 9.5 °F 76% 30.56 in 10.0 mi NNE 11.5 mph 18.4 mph N/A   Scattered Clouds
11:55 PM 15.8 °F 2.1 °F 9.5 °F 76% 30.56 in 10.0 mi North 12.7 mph 16.1 mph N/A   Clear